User: anonymous   Login
Location: Unspecified
(0.0000°N, 0.0000°E)
Time: 03:23:45
(UTC+00:00)
Language:

IRIDIUM 110 - Orbit

View from above orbital plane
View from above orbital plane
View from above satellite
View from above satellite

Ground track
Ground track

The orbit is defined by the following mean orbital elements,

1 43481U          26145.36998064 +.00000000 +00000-0 +23348-4 0 00000
2 43481  86.3949  97.9678 0002499  92.6470 267.5012 14.34217957    05
Epoch (UTC): 25 May 2026 08:52:46
Eccentricity: 0.0002499
inclination: 86.3949°
perigee height: 776 km
apogee height: 779 km
right ascension of ascending node: 97.9678°
argument of perigee: 92.6470°
revolutions per day: 14.34217957
mean anomaly at epoch: 267.5012°

The dashed part of the orbit path shows where the satellite is in the earth's shadow,  

DLR